User: anonymous   Login
Location: Unspecified
(0.0000°N, 0.0000°E)
Time: 17:02:44
(UTC+00:00)
Language:

ANNA 1B - Orbit

View from above orbital plane
View from above orbital plane
View from above satellite
View from above satellite

Ground track
Ground track

The orbit data is extracted from the following two-line orbital elements,

1   446U 62060A   18174.92868167 -.00000128 +00000-0 -27846-5 0  9991
2   446 050.1425 091.4474 0070376 003.0546 041.7201 13.35264667714216
Epoch (UTC): 23 June 2018 22:17:18
Eccentricity: 0.0070376
inclination: 50.1425°
perigee height: 1074 km
apogee height: 1180 km
right ascension of ascending node: 91.4474°
argument of perigee: 3.0546°
revolutions per day: 13.35264667
mean anomaly at epoch: 41.7201°
orbit number at epoch: 71421

The dashed part of the orbit path shows where the satellite is in the earth's shadow,  

DLR